| time (UTC) | temp C | wind direction | speed KPH | gust KPH | rain 1hr cm | rain 24hr cm | rain mn cm | humidity % | barometer mb |
| 20260905133052 | 25 | 51 | 3.2 | 6.4 | 0.00 | 0.00 | 0.00 | 100 | 1014.6 |
| 20260905131552 | 25 | 59 | 1.6 | 4.8 | 0.00 | 0.00 | 0.00 | 100 | 1014.6 |
| 20260905130035 | 24 | 74 | 1.6 | 6.4 | 0.00 | 0.00 | 0.00 | 100 | 1014.4 |
| 20260905124534 | 23 | 55 | 1.6 | 4.8 | 0.00 | 0.00 | 0.00 | 100 | 1014.3 |
| 20260905123033 | 23 | 57 | 3.2 | 6.4 | 0.00 | 0.00 | 0.00 | 100 | 1014.1 |
| 20260905121532 | 23 | 42 | 3.2 | 6.4 | 0.00 | 0.00 | 0.00 | 99 | 1014.1 |
| 20260905120030 | 23 | 53 | 3.2 | 8.0 | 0.00 | 0.00 | 0.00 | 99 | 1013.9 |
| 20260905114545 | 23 | 21 | 3.2 | 6.4 | 0.00 | 0.03 | 0.00 | 99 | 1013.8 |
| 20260905113028 | 23 | 32 | 0.0 | 0.0 | 0.00 | 0.03 | 0.00 | 100 | 1013.6 |
| 20260905111527 | 23 | 32 | 0.0 | 0.0 | 0.00 | 0.03 | 0.00 | 99 | 1013.4 |
| 20260905110027 | 23 | 32 | 0.0 | 0.0 | 0.00 | 0.03 | 0.00 | 99 | 1013.3 |
| 20260905104532 | 23 | 32 | 0.0 | 4.8 | 0.00 | 0.03 | 0.00 | 99 | 1013.2 |
| 20260905103032 | 23 | 32 | 3.2 | 6.4 | 0.00 | 0.03 | 0.00 | 99 | 1013.1 |
| 20260905101525 | 23 | 41 | 0.0 | 0.0 | 0.00 | 0.03 | 0.00 | 99 | 1013.2 |
| 20260905100024 | 23 | 41 | 0.0 | 3.2 | 0.00 | 0.03 | 0.00 | 99 | 1013.1 |
| 20260905094522 | 24 | 36 | 3.2 | 6.4 | 0.00 | 0.03 | 0.00 | 98 | 1013.2 |
| 20260905093025 | 24 | 15 | 0.0 | 0.0 | 0.00 | 0.03 | 0.00 | 99 | 1013.1 |
| 20260905091520 | 24 | 15 | 0.0 | 0.0 | 0.00 | 0.03 | 0.00 | 98 | 1013.3 |
| 20260905090019 | 25 | 15 | 0.0 | 0.0 | 0.00 | 0.03 | 0.00 | 98 | 1013.3 |
| 20260905084519 | 25 | 14 | 0.0 | 0.0 | 0.00 | 0.03 | 0.00 | 98 | 1013.2 |
| 20260905083017 | 25 | 46 | 0.0 | 0.0 | 0.00 | 0.03 | 0.00 | 98 | 1013.4 |
| 20260905081517 | 25 | 105 | 0.0 | 0.0 | 0.00 | 0.03 | 0.00 | 98 | 1013.2 |
| 20260905080021 | 25 | 105 | 0.0 | 0.0 | 0.00 | 0.03 | 0.00 | 98 | 1013.0 |
| 20260905074517 | 25 | 105 | 0.0 | 0.0 | 0.00 | 0.03 | 0.00 | 98 | 1013.4 |
| 20260905073012 | 25 | 105 | 0.0 | 0.0 | 0.00 | 0.03 | 0.00 | 97 | 1013.3 |
| 20260905071510 | 25 | 105 | 0.0 | 0.0 | 0.00 | 0.03 | 0.00 | 98 | 1013.7 |
| 20260905070008 | 25 | 105 | 0.0 | 0.0 | 0.00 | 0.03 | 0.00 | 97 | 1013.6 |
| 20260905064508 | 25 | 116 | 0.0 | 0.0 | 0.00 | 0.03 | 0.00 | 97 | 1013.6 |
| 20260905063007 | 25 | 116 | 0.0 | 0.0 | 0.00 | 0.03 | 0.00 | 97 | 1013.7 |
| 20260905061505 | 25 | 116 | 0.0 | 3.2 | 0.00 | 0.03 | 0.00 | 97 | 1013.8 |
| 20260905060009 | 25 | 64 | 0.0 | 1.6 | 0.00 | 0.03 | 0.00 | 96 | 1013.9 |
| 20260905054502 | 25 | 118 | 0.0 | 1.6 | 0.00 | 0.03 | 0.00 | 96 | 1013.7 |
| 20260905053002 | 25 | 118 | 0.0 | 0.0 | 0.00 | 0.03 | 0.00 | 96 | 1013.8 |
| 20260905051611 | 25 | 138 | 0.0 | 0.0 | 0.00 | 0.03 | 0.00 | 96 | 1013.8 |
| 20260905050106 | 25 | 138 | 0.0 | 0.0 | 0.00 | 0.03 | 0.00 | 96 | 1013.9 |
| 20260905044600 | 25 | 138 | 1.6 | 4.8 | 0.00 | 0.03 | 0.03 | 95 | 1014.0 |
| 20260905043057 | 25 | 138 | 0.0 | 1.6 | 0.00 | 0.03 | 0.03 | 95 | 1014.0 |
| 20260905041556 | 25 | 138 | 3.2 | 6.4 | 0.00 | 0.03 | 0.03 | 95 | 1014.2 |
| 20260905040057 | 25 | 138 | 4.8 | 6.4 | 0.00 | 0.03 | 0.03 | 95 | 1014.2 |
| 20260905034608 | 26 | 132 | 1.6 | 3.2 | 0.00 | 0.03 | 0.03 | 94 | 1014.2 |
| 20260905033105 | 26 | 130 | 3.2 | 8.0 | 0.00 | 0.03 | 0.03 | 93 | 1014.3 |
| 20260905031608 | 26 | 144 | 3.2 | 6.4 | 0.00 | 0.03 | 0.03 | 92 | 1014.2 |
| 20260905030053 | 26 | 138 | 6.4 | 11.3 | 0.00 | 0.03 | 0.03 | 91 | 1014.2 |
| 20260905024553 | 26 | 135 | 6.4 | 11.3 | 0.00 | 0.03 | 0.03 | 91 | 1014.1 |
| 20260905023124 | 26 | 126 | 3.2 | 9.7 | 0.00 | 0.03 | 0.03 | 90 | 1013.9 |
| 20260905021552 | 26 | 118 | 3.2 | 6.4 | 0.00 | 0.03 | 0.03 | 90 | 1013.8 |
| 20260905020051 | 27 | 103 | 4.8 | 6.4 | 0.00 | 0.03 | 0.03 | 89 | 1013.7 |
| 20260905014554 | 27 | 132 | 6.4 | 12.9 | 0.00 | 0.03 | 0.03 | 87 | 1013.3 |
| 20260905013048 | 27 | 109 | 6.4 | 12.9 | 0.00 | 0.03 | 0.03 | 86 | 1013.1 |
| 20260905011554 | 28 | 107 | 4.8 | 9.7 | 0.00 | 0.03 | 0.03 | 87 | 1012.8 |
| 20260905010046 | 28 | 105 | 1.6 | 3.2 | 0.00 | 0.03 | 0.03 | 83 | 1012.7 |
| 20260905004544 | 30 | 105 | 0.0 | 3.2 | 0.00 | 0.03 | 0.03 | 81 | 1012.6 |
| 20260905003044 | 30 | 105 | 0.0 | 1.6 | 0.00 | 0.03 | 0.03 | 79 | 1012.5 |
| 20260905001545 | 30 | 105 | 0.0 | 3.2 | 0.00 | 0.03 | 0.03 | 79 | 1012.6 |
| 20260905000053 | 30 | 105 | 3.2 | 9.7 | 0.00 | 0.03 | 0.03 | 77 | 1012.5 |
| 20260904234542 | 30 | 119 | 6.4 | 11.3 | 0.00 | 0.03 | 0.03 | 78 | 1012.4 |
| 20260904233045 | 30 | 103 | 3.2 | 6.4 | 0.00 | 0.03 | 0.03 | 79 | 1012.3 |
| 20260904231539 | 28 | 193 | 0.0 | 6.4 | 0.00 | 0.03 | 0.03 | 82 | 1012.5 |
| 20260904230039 | 28 | 235 | 0.0 | 1.6 | 0.00 | 0.03 | 0.03 | 83 | 1012.4 |
| 20260904224538 | 28 | 202 | 1.6 | 6.4 | 0.00 | 0.03 | 0.03 | 83 | 1012.7 |
| 20260904223037 | 28 | 199 | 3.2 | 8.0 | 0.00 | 0.03 | 0.03 | 84 | 1012.9 |
| 20260904221536 | 29 | 195 | 6.4 | 11.3 | 0.00 | 0.03 | 0.03 | 81 | 1012.9 |
| 20260904214533 | 30 | 154 | 6.4 | 14.5 | 0.00 | 0.03 | 0.03 | 82 | 1013.1 |
| 20260904213036 | 30 | 102 | 9.7 | 16.1 | 0.00 | 0.03 | 0.03 | 81 | 1013.2 |
| 20260904211536 | 31 | 109 | 11.3 | 17.7 | 0.00 | 0.03 | 0.03 | 80 | 1013.2 |
| 20260904210132 | 30 | 89 | 6.4 | 11.3 | 0.00 | 0.03 | 0.03 | 78 | 1013.2 |
| 20260904204535 | 30 | 84 | 9.7 | 16.1 | 0.00 | 0.03 | 0.03 | 75 | 1013.4 |
| 20260904203041 | 29 | 84 | 4.8 | 12.9 | 0.00 | 0.03 | 0.03 | 83 | 1013.6 |
| 20260904201530 | 28 | 98 | 6.4 | 12.9 | 0.00 | 0.03 | 0.03 | 86 | 1013.5 |
| 20260904200036 | 28 | 98 | 6.4 | 11.3 | 0.00 | 0.03 | 0.03 | 86 | 1014.0 |
| 20260904194546 | 28 | 124 | 3.2 | 9.7 | 0.00 | 0.10 | 0.03 | 86 | 1014.2 |
| 20260904193029 | 28 | 111 | 4.8 | 11.3 | 0.00 | 0.10 | 0.03 | 80 | 1014.4 |
| 20260904191538 | 27 | 153 | 6.4 | 17.7 | 0.00 | 0.10 | 0.03 | 80 | 1014.6 |
| 20260904190029 | 28 | 150 | 8.0 | 19.3 | 0.00 | 0.10 | 0.03 | 81 | 1014.6 |
| 20260904184527 | 30 | 143 | 12.9 | 19.3 | 0.00 | 0.10 | 0.03 | 80 | 1014.6 |
| 20260904183027 | 30 | 82 | 14.5 | 20.9 | 0.00 | 0.10 | 0.03 | 80 | 1014.6 |
| 20260904181526 | 31 | 104 | 14.5 | 22.5 | 0.00 | 0.10 | 0.03 | 78 | 1014.9 |
| 20260904180025 | 31 | 84 | 9.7 | 16.1 | 0.00 | 0.10 | 0.03 | 78 | 1015.1 |
| 20260904174554 | 31 | 70 | 9.7 | 14.5 | 0.00 | 0.10 | 0.03 | 79 | 1015.0 |
| 20260904173025 | 30 | 134 | 6.4 | 14.5 | 0.00 | 0.10 | 0.03 | 76 | 1015.3 |
| 20260904171523 | 30 | 169 | 9.7 | 16.1 | 0.00 | 0.10 | 0.03 | 78 | 1015.2 |
| 20260904170023 | 30 | 108 | 4.8 | 14.5 | 0.00 | 0.10 | 0.03 | 81 | 1015.3 |
| 20260904164519 | 30 | 87 | 9.7 | 16.1 | 0.00 | 0.10 | 0.03 | 83 | 1015.4 |
| 20260904163017 | 29 | 148 | 8.0 | 12.9 | 0.00 | 0.10 | 0.03 | 87 | 1015.4 |
| 20260904161515 | 29 | 100 | 4.8 | 11.3 | 0.00 | 0.10 | 0.03 | 86 | 1015.4 |
| 20260904160012 | 28 | 140 | 1.6 | 6.4 | 0.00 | 0.10 | 0.03 | 87 | 1015.3 |
| 20260904154509 | 28 | 171 | 3.2 | 8.0 | 0.00 | 0.10 | 0.03 | 88 | 1015.1 |
| 20260904153124 | 28 | 116 | 0.0 | 11.3 | 0.00 | 0.10 | 0.03 | 89 | 1014.9 |
| 20260904151504 | 28 | 132 | 6.4 | 12.9 | 0.00 | 0.10 | 0.03 | 91 | 1015.0 |
| 20260904150005 | 28 | 140 | 6.4 | 12.9 | 0.00 | 0.10 | 0.03 | 92 | 1015.0 |
| 20260904144559 | 27 | 107 | 4.8 | 6.4 | 0.00 | 0.10 | 0.03 | 94 | 1015.0 |
| 20260904143101 | 27 | 112 | 4.8 | 6.4 | 0.00 | 0.10 | 0.03 | 96 | 1014.8 |
| 20260904141554 | 26 | 127 | 3.2 | 6.4 | 0.00 | 0.10 | 0.03 | 97 | 1014.6 |
| 20260904140052 | 26 | 105 | 3.2 | 6.4 | 0.00 | 0.10 | 0.03 | 98 | 1014.7 |
| 20260904134549 | 26 | 90 | 0.0 | 0.0 | 0.00 | 0.10 | 0.03 | 99 | 1014.7 |